Regional Weather Roundup
Issued by NWS

Home | Current Version | Previous Version | Text Only | Print | Product List | Glossary On
Versions: 1 2 3 4 5 6 7 8 9 10 11 12 13 14 15 16 17 18 19 20 21 22 23 24 25 26 27 28 29 30 31 32 33 34 35 36 37 38 39 40 41 42 43 44 45 46 47 48 49 50
000
ASUS43 KDTX 202301
RWRMI
MICHIGAN HOURLY REGIONAL WEATHER ROUNDUP
NATIONAL WEATHER SERVICE DETROIT/PONTIAC MI
700 PM EDT THU JUL 20 2017

NOTE: "FAIR" INDICATES FEW OR NO CLOUDS BELOW 12,000 FEET WITH NO
SIGNIFICANT WEATHER AND/OR OBSTRUCTION TO VISIBILITY.

MIZ047>049-052>055-059>063-066>070-074>076-081>083-210000-
SOUTHEAST LOWER MICHIGAN

CITY           SKY/WX    TMP DP  RH WIND       PRES   REMARKS
ADRIAN         CLOUDY    83  71  67 W7        29.97R
ALMA           MOSUNNY   84  67  57 SW5       29.93S
ANN ARBOR      MOSUNNY   84  70  62 SW7       29.95S
BAD AXE        MOSUNNY   84  67  55 W10       29.91S
CARO           SUNNY     83  68  60 SW10      29.91S
DETROIT CITY   PTSUNNY   86  67  52 NW7       29.93S
DETROIT        PTSUNNY   85  70  60 SW6       29.95R
FLINT          SUNNY     83  69  62 SW7       29.94S
GROSSE ILE     MOSUNNY   81  73  76 S9        29.93S
HILLSDALE      PTSUNNY   81  70  69 SW3       29.97F
HOWELL         MOSUNNY   83  69  62 SW3       29.95S

CITY           SKY/WX    TMP DP  RH WIND       PRES   REMARKS
JACKSON        MOSUNNY   83  69  62 W6        29.96S
LAMBERTVILLE   PTSUNNY   85  70  61 W8        29.95S
LANSING        MOSUNNY   85  69  58 NW7       29.95S
LAPEER         PTSUNNY   83  66  56 W9        29.94S
MASON          SUNNY     84  71  64 W3        29.95S
MONROE         MOSUNNY   85  71  63 SW6       29.93S HX  90
MT. CLEMENS    MOSUNNY   85  68  56 W10       29.92S
PONTIAC        PTSUNNY   83  69  62 SW7       29.94S
PORT HOPE        N/A     75  68  78 SE13      29.89F
PORT HURON     SUNNY     84  68  58 CALM      29.92S
TRI CITIES     MOSUNNY   85  70  60 W12       29.91F
MIDLAND        FAIR      85  67  55 SW6       29.89F
TROY           PTSUNNY   85  66  53 W6        29.96R
SAGINAW HB     MOSUNNY   82  68  61 SW9       29.91S
$$
MIZ043>046-050>051-056>058-064>065-071>073-077>080-210000-
SOUTHWEST LOWER MICHIGAN

CITY           SKY/WX    TMP DP  RH WIND       PRES   REMARKS
BATTLE CREEK   MOSUNNY   84  71  65 NW8       29.97S
BENTON HARBOR  SUNNY     81  67  62 VRB6      29.96F
BIG RAPIDS     MOSUNNY   83  62  49 NW8       29.93S
COLDWATER      MOSUNNY   84  74  72 W8        29.96F HX  90
FREMONT        FAIR      83  61  47 NW8       29.94S
HOLLAND        SUNNY     78  68  71 W8        29.97S
GRAND RAPIDS   PTSUNNY   84  70  62 SW7       29.94F
IONIA          PTSUNNY   83  68  61 W5        29.94S
KALAMAZOO      SUNNY     85  67  54 NW8       29.96S
LUDINGTON      PTSUNNY   74  67  79 SW7       29.95S
MARSHALL       MOSUNNY   84  70  63 W6        29.95F
MOUNT PLEASANT MOSUNNY   86  64  48 W5        29.91S
MUSKEGON       MOSUNNY   77  68  73 SW7       29.95F
SOUTH HAVEN    SUNNY     81  69  67 W3        29.96F
$$
MIZ016>042-210000-
NORTHERN LOWER MICHIGAN

CITY           SKY/WX    TMP DP  RH WIND       PRES   REMARKS
ALPENA         SUNNY     77  67  71 SE8       29.90S
BEAVER ISLAND  SUNNY     77  64  65 W7        29.92S
BELLAIRE       SUNNY     79  62  56 CALM      29.92S
CADILLAC       SUNNY     83  63  52 NW7G16    29.96R
CHARLEVOIX     SUNNY     76  63  63 W8        29.95S
FRANKFORT      CLOUDY    76  69  79 W3        29.94S
GAYLORD        SUNNY     80  58  46 NW7       29.94S
GRAYLING       SUNNY     81  60  48 W9        29.95R
HARBOR SPRINGS SUNNY     74  67  80 SW6       29.91F
HOUGHTON LAKE  SUNNY     83  63  50 NW12      29.94R
MANISTEE       SUNNY     78  69  73 W8        29.94S
OSCODA         SUNNY     80  67  63 S12       29.88F
PELLSTON       SUNNY     81  63  54 W10       29.91F
ROGERS CITY    SUNNY     75  62  64 N3        29.91R
TRAVERSE CITY  MOSUNNY   82  59  45 N7        29.91S
$$
MIZ007>008-015-210000-
EASTERN UPPER MICHIGAN

CITY           SKY/WX    TMP DP  RH WIND       PRES   REMARKS
KINROSS        SUNNY     73  61  65 N9        29.91S
MACKINAC ISLAN SUNNY     74  64  73 SW7       29.90S
NEWBERRY       SUNNY     76  60  57 NW9G17    29.91S
S. S. MARIE    SUNNY     72  57  59 NW8       29.90S
MUNISING         N/A     74  64  71 NW7       29.93S
$$
MIZ004>006-011>014-085-210000-
CENTRAL UPPER MICHIGAN

CITY           SKY/WX    TMP DP  RH WIND       PRES   REMARKS
MANISTIQUE     MOSUNNY   79  64  60 N9        29.91S
ESCANABA       MOSUNNY   86  64  47 NE8       29.89S
MENOMINEE      SUNNY     86  66  51 NW3       29.91F
SAWYER-GWINN   MOSUNNY   75  63  64 E10       29.94S
$$
MIZ001>003-009>011-084-210000-
WESTERN UPPER MICHIGAN

CITY           SKY/WX    TMP DP  RH WIND       PRES   REMARKS
IRON MOUNTAIN  SUNNY     86  59  39 NW12      29.92S
HOUGHTON       SUNNY     76  61  59 W12       29.93F
COPPER HARBOR    N/A     64  56  75 N8        29.91S
IRONWOOD       SUNNY     80  61  52 W6        29.98F
$$

ABBREVIATIONS USED IN REMARKS
   TC - TEMPERATURE IN CELSIUS
  WCI - WIND CHILL INDEX
   HX - HEAT INDEX
  VSB - VISIBILITY





USA.gov is the U.S. government's official web portal to all federal, state and local government web resources and services.